| time (UTC) | temp F | wind direction | speed knots | gust knots | rain 1hr in | rain 24hr in | rain mn in | humidity % | barometer mb |
| 20260509130744 | 46 | 323 | 0.0 | 0.0 | 0.00 | 0.00 | 0.00 | 91 | 1029.4 |
| 20260509130243 | 46 | 323 | 0.0 | 0.0 | 0.00 | 0.00 | 0.00 | 91 | 1029.4 |
| 20260509125742 | 46 | 323 | 0.0 | 0.0 | 0.00 | 0.00 | 0.00 | 91 | 1029.4 |
| 20260509125240 | 46 | 323 | 0.0 | 0.0 | 0.00 | 0.00 | 0.00 | 91 | 1029.3 |
| 20260509124741 | 47 | 323 | 0.0 | 0.0 | 0.00 | 0.00 | 0.00 | 91 | 1029.5 |
| 20260509124240 | 47 | 323 | 0.0 | 0.0 | 0.00 | 0.00 | 0.00 | 91 | 1029.4 |
| 20260509123740 | 47 | 322 | 0.0 | 0.0 | 0.00 | 0.00 | 0.00 | 91 | 1029.4 |
| 20260509123241 | 47 | 323 | 0.0 | 0.0 | 0.00 | 0.00 | 0.00 | 91 | 1029.3 |
| 20260509122741 | 47 | 323 | 0.0 | 0.9 | 0.00 | 0.00 | 0.00 | 91 | 1029.5 |
| 20260509122242 | 48 | 323 | 0.0 | 0.9 | 0.00 | 0.00 | 0.00 | 91 | 1029.5 |
| 20260509121740 | 48 | 323 | 0.0 | 0.9 | 0.00 | 0.00 | 0.00 | 91 | 1029.5 |
| 20260509121245 | 48 | 323 | 0.0 | 0.0 | 0.00 | 0.00 | 0.00 | 91 | 1029.7 |
| 20260509120742 | 48 | 323 | 0.0 | 0.9 | 0.00 | 0.00 | 0.00 | 91 | 1029.7 |
| 20260509120241 | 48 | 323 | 0.0 | 0.9 | 0.00 | 0.00 | 0.00 | 91 | 1029.5 |
| 20260509115736 | 49 | 323 | 0.0 | 0.0 | 0.00 | 0.00 | 0.00 | 90 | 1029.7 |
| 20260509115238 | 49 | 323 | 0.0 | 0.0 | 0.00 | 0.00 | 0.00 | 90 | 1029.7 |
| 20260509114736 | 49 | 323 | 0.0 | 0.0 | 0.00 | 0.00 | 0.00 | 90 | 1029.4 |
| 20260509114237 | 49 | 323 | 0.0 | 0.9 | 0.00 | 0.00 | 0.00 | 90 | 1029.7 |
| 20260509113738 | 49 | 0 | 0.0 | 0.9 | 0.00 | 0.00 | 0.00 | 90 | 1029.5 |
| 20260509113233 | 50 | 323 | 0.0 | 0.9 | 0.00 | 0.00 | 0.00 | 90 | 1029.5 |
| 20260509112733 | 50 | 323 | 0.0 | 0.9 | 0.00 | 0.00 | 0.00 | 90 | 1029.4 |
| 20260509112232 | 50 | 323 | 0.0 | 0.9 | 0.00 | 0.00 | 0.00 | 91 | 1029.5 |
| 20260509111732 | 50 | 323 | 0.0 | 1.7 | 0.00 | 0.00 | 0.00 | 91 | 1029.5 |
| 20260509111237 | 50 | 322 | 0.0 | 1.7 | 0.00 | 0.00 | 0.00 | 91 | 1029.5 |
| 20260509110732 | 50 | 323 | 0.0 | 2.6 | 0.00 | 0.00 | 0.00 | 91 | 1029.7 |
| 20260509110232 | 50 | 323 | 0.0 | 2.6 | 0.00 | 0.00 | 0.00 | 91 | 1029.7 |
| 20260509105732 | 50 | 323 | 0.0 | 2.6 | 0.00 | 0.00 | 0.00 | 91 | 1029.8 |
| 20260509105233 | 50 | 323 | 0.9 | 2.6 | 0.00 | 0.00 | 0.00 | 91 | 1030.0 |
| 20260509104729 | 50 | 323 | 0.9 | 2.6 | 0.00 | 0.00 | 0.00 | 91 | 1030.0 |
| 20260509104229 | 50 | 319 | 0.0 | 1.7 | 0.00 | 0.00 | 0.00 | 91 | 1030.0 |
| 20260509103729 | 50 | 319 | 0.9 | 2.6 | 0.00 | 0.00 | 0.00 | 91 | 1030.0 |
| 20260509103228 | 50 | 319 | 0.9 | 2.6 | 0.00 | 0.00 | 0.00 | 91 | 1030.1 |
| 20260509102726 | 50 | 0 | 0.0 | 1.7 | 0.00 | 0.00 | 0.00 | 91 | 1030.0 |
| 20260509102226 | 50 | 339 | 0.0 | 1.7 | 0.00 | 0.00 | 0.00 | 91 | 1030.0 |
| 20260509101723 | 50 | 340 | 0.0 | 1.7 | 0.00 | 0.00 | 0.00 | 90 | 1030.0 |
| 20260509101222 | 50 | 339 | 0.0 | 0.0 | 0.00 | 0.00 | 0.00 | 91 | 1029.9 |
| 20260509100720 | 50 | 0 | 0.0 | 0.0 | 0.00 | 0.00 | 0.00 | 90 | 1030.0 |
| 20260509100221 | 50 | 340 | 0.0 | 0.0 | 0.00 | 0.00 | 0.00 | 90 | 1030.0 |
| 20260509095720 | 51 | 339 | 0.0 | 0.0 | 0.00 | 0.00 | 0.00 | 90 | 1029.9 |
| 20260509095219 | 51 | 340 | 0.0 | 0.0 | 0.00 | 0.00 | 0.00 | 90 | 1030.1 |
| 20260509094718 | 51 | 0 | 0.0 | 0.0 | 0.00 | 0.00 | 0.00 | 90 | 1030.1 |
| 20260509094216 | 51 | 339 | 0.0 | 0.0 | 0.00 | 0.00 | 0.00 | 90 | 1030.0 |
| 20260509093714 | 51 | 339 | 0.0 | 0.9 | 0.00 | 0.00 | 0.00 | 90 | 1030.1 |
| 20260509093214 | 51 | 340 | 0.0 | 0.9 | 0.00 | 0.00 | 0.00 | 89 | 1030.1 |
| 20260509092714 | 52 | 340 | 0.0 | 1.7 | 0.00 | 0.00 | 0.00 | 89 | 1030.1 |
| 20260509092214 | 52 | 340 | 0.0 | 1.7 | 0.00 | 0.00 | 0.00 | 89 | 1030.3 |
| 20260509091712 | 52 | 340 | 0.0 | 1.7 | 0.00 | 0.00 | 0.00 | 89 | 1030.2 |
| 20260509091211 | 52 | 338 | 0.9 | 2.6 | 0.00 | 0.00 | 0.00 | 89 | 1030.2 |
| 20260509090711 | 52 | 341 | 0.9 | 2.6 | 0.00 | 0.00 | 0.00 | 89 | 1030.3 |
| 20260509090211 | 52 | 300 | 0.0 | 1.7 | 0.00 | 0.00 | 0.00 | 89 | 1030.3 |
| 20260509085708 | 52 | 300 | 0.0 | 1.7 | 0.00 | 0.00 | 0.00 | 89 | 1030.3 |
| 20260509085208 | 53 | 300 | 0.0 | 1.7 | 0.00 | 0.00 | 0.00 | 89 | 1030.4 |
| 20260509084703 | 53 | 300 | 0.9 | 2.6 | 0.00 | 0.00 | 0.00 | 89 | 1030.5 |
| 20260509084202 | 53 | 299 | 0.9 | 2.6 | 0.00 | 0.00 | 0.00 | 89 | 1030.4 |
| 20260509083702 | 53 | 298 | 0.0 | 1.7 | 0.00 | 0.00 | 0.00 | 89 | 1030.6 |
| 20260509083202 | 53 | 298 | 0.0 | 1.7 | 0.00 | 0.00 | 0.00 | 89 | 1030.6 |
| 20260509082702 | 53 | 299 | 0.9 | 1.7 | 0.00 | 0.00 | 0.00 | 88 | 1030.7 |
| 20260509082201 | 53 | 299 | 0.0 | 1.7 | 0.00 | 0.00 | 0.00 | 88 | 1030.7 |
| 20260509081659 | 53 | 299 | 0.0 | 1.7 | 0.00 | 0.00 | 0.00 | 88 | 1030.7 |
| 20260509081158 | 53 | 298 | 0.0 | 1.7 | 0.00 | 0.00 | 0.00 | 88 | 1030.8 |
| 20260509080656 | 53 | 297 | 0.0 | 1.7 | 0.00 | 0.00 | 0.00 | 87 | 1030.8 |
| 20260509080156 | 53 | 298 | 0.0 | 0.9 | 0.00 | 0.00 | 0.00 | 87 | 1030.8 |
| 20260509075656 | 54 | 297 | 0.0 | 1.7 | 0.00 | 0.00 | 0.00 | 87 | 1030.7 |
| 20260509075157 | 54 | 298 | 0.0 | 1.7 | 0.00 | 0.00 | 0.00 | 87 | 1030.7 |
| 20260509074654 | 54 | 298 | 0.9 | 1.7 | 0.00 | 0.00 | 0.00 | 87 | 1030.8 |
| 20260509074152 | 53 | 298 | 0.9 | 1.7 | 0.00 | 0.00 | 0.00 | 88 | 1030.8 |
| 20260509073653 | 53 | 300 | 0.0 | 2.6 | 0.00 | 0.00 | 0.00 | 88 | 1030.8 |
| 20260509073152 | 53 | 300 | 0.0 | 2.6 | 0.00 | 0.00 | 0.00 | 88 | 1030.9 |
| 20260509072650 | 53 | 275 | 0.0 | 1.7 | 0.00 | 0.00 | 0.00 | 87 | 1030.8 |
| 20260509072151 | 53 | 273 | 0.0 | 0.0 | 0.00 | 0.00 | 0.00 | 87 | 1030.8 |
| 20260509071649 | 54 | 274 | 0.0 | 0.0 | 0.00 | 0.00 | 0.00 | 87 | 1030.9 |
| 20260509071148 | 54 | 275 | 0.0 | 0.9 | 0.00 | 0.00 | 0.00 | 87 | 1030.7 |
| 20260509070649 | 54 | 274 | 0.0 | 0.9 | 0.00 | 0.00 | 0.00 | 87 | 1030.7 |
| 20260509070148 | 54 | 274 | 0.0 | 0.0 | 0.00 | 0.00 | 0.00 | 86 | 1030.7 |
| 20260509065648 | 54 | 273 | 0.0 | 0.0 | 0.00 | 0.00 | 0.00 | 85 | 1030.5 |
| 20260509065149 | 55 | 273 | 0.0 | 0.0 | 0.00 | 0.00 | 0.00 | 85 | 1030.5 |
| 20260509064647 | 55 | 275 | 0.0 | 0.0 | 0.00 | 0.00 | 0.00 | 85 | 1030.6 |
| 20260509064144 | 56 | 274 | 0.0 | 0.0 | 0.00 | 0.00 | 0.00 | 84 | 1030.6 |
| 20260509063642 | 56 | 275 | 0.0 | 0.0 | 0.00 | 0.00 | 0.00 | 83 | 1030.6 |
| 20260509063142 | 56 | 274 | 0.0 | 0.0 | 0.00 | 0.00 | 0.00 | 82 | 1030.7 |
| 20260509062643 | 57 | 274 | 0.0 | 0.0 | 0.00 | 0.00 | 0.00 | 82 | 1030.6 |
| 20260509062142 | 57 | 274 | 0.0 | 0.0 | 0.00 | 0.00 | 0.00 | 82 | 1030.6 |
| 20260509061643 | 57 | 274 | 0.0 | 0.9 | 0.00 | 0.00 | 0.00 | 81 | 1030.7 |
| 20260509061138 | 57 | 274 | 0.0 | 2.6 | 0.00 | 0.00 | 0.00 | 81 | 1030.6 |
| 20260509060639 | 58 | 274 | 0.9 | 2.6 | 0.00 | 0.00 | 0.00 | 81 | 1030.6 |
| 20260509060136 | 58 | 266 | 0.9 | 2.6 | 0.00 | 0.00 | 0.00 | 81 | 1030.6 |
| 20260509055636 | 58 | 269 | 0.9 | 2.6 | 0.00 | 0.00 | 0.00 | 81 | 1030.6 |
| 20260509055136 | 58 | 269 | 0.9 | 2.6 | 0.00 | 0.00 | 0.00 | 81 | 1030.8 |
| 20260509054636 | 58 | 308 | 0.0 | 1.7 | 0.00 | 0.00 | 0.00 | 80 | 1030.7 |
| 20260509054130 | 58 | 309 | 0.0 | 1.7 | 0.00 | 0.00 | 0.00 | 80 | 1030.7 |
| 20260509053630 | 58 | 308 | 0.9 | 2.6 | 0.00 | 0.00 | 0.00 | 80 | 1030.9 |
| 20260509053130 | 59 | 308 | 0.9 | 2.6 | 0.00 | 0.00 | 0.00 | 80 | 1030.7 |
| 20260509052629 | 59 | 258 | 0.9 | 2.6 | 0.00 | 0.00 | 0.00 | 79 | 1030.8 |
| 20260509052130 | 59 | 266 | 0.0 | 2.6 | 0.00 | 0.00 | 0.00 | 79 | 1030.7 |
| 20260509051631 | 59 | 294 | 0.0 | 1.7 | 0.00 | 0.00 | 0.00 | 79 | 1030.7 |
| 20260509051124 | 59 | 293 | 0.0 | 1.7 | 0.00 | 0.00 | 0.00 | 79 | 1030.6 |
| 20260509050622 | 59 | 294 | 0.9 | 2.6 | 0.00 | 0.00 | 0.00 | 78 | 1030.6 |
| 20260509050121 | 59 | 294 | 0.9 | 2.6 | 0.00 | 0.00 | 0.00 | 78 | 1030.5 |
| 20260509045618 | 60 | 294 | 0.9 | 2.6 | 0.00 | 0.00 | 0.00 | 78 | 1030.5 |
| 20260509045119 | 60 | 312 | 0.0 | 2.6 | 0.00 | 0.00 | 0.00 | 77 | 1030.5 |
| 20260509044613 | 60 | 284 | 0.9 | 3.5 | 0.00 | 0.00 | 0.00 | 77 | 1030.3 |
| 20260509044112 | 60 | 282 | 0.9 | 3.5 | 0.00 | 0.00 | 0.00 | 76 | 1030.3 |
| 20260509043612 | 61 | 305 | 1.7 | 3.5 | 0.00 | 0.00 | 0.00 | 76 | 1030.3 |
| 20260509043112 | 61 | 327 | 1.7 | 5.2 | 0.00 | 0.00 | 0.00 | 76 | 1030.3 |
| 20260509042612 | 61 | 243 | 1.7 | 5.2 | 0.00 | 0.00 | 0.00 | 76 | 1030.2 |
| 20260509042112 | 61 | 284 | 1.7 | 4.3 | 0.00 | 0.00 | 0.00 | 75 | 1030.2 |
| 20260509041607 | 61 | 346 | 1.7 | 4.3 | 0.00 | 0.00 | 0.00 | 75 | 1030.1 |
| 20260509041106 | 61 | 313 | 1.7 | 3.5 | 0.00 | 0.00 | 0.00 | 75 | 1030.2 |
| 20260509040605 | 62 | 302 | 1.7 | 5.2 | 0.00 | 0.00 | 0.00 | 74 | 1030.1 |
| 20260509040106 | 62 | 349 | 1.7 | 5.2 | 0.00 | 0.00 | 0.00 | 74 | 1030.1 |
| 20260509035606 | 62 | 355 | 0.9 | 3.5 | 0.00 | 0.00 | 0.00 | 74 | 1030.0 |
| 20260509035107 | 62 | 274 | 1.7 | 7.8 | 0.00 | 0.00 | 0.00 | 73 | 1030.0 |
| 20260509034601 | 62 | 0 | 1.7 | 7.8 | 0.00 | 0.00 | 0.00 | 73 | 1029.8 |
| 20260509034100 | 63 | 264 | 2.6 | 7.8 | 0.00 | 0.00 | 0.00 | 72 | 1029.9 |
| 20260509033559 | 63 | 257 | 1.7 | 7.8 | 0.00 | 0.00 | 0.00 | 72 | 1029.9 |
| 20260509033059 | 63 | 246 | 1.7 | 7.0 | 0.00 | 0.00 | 0.00 | 71 | 1029.9 |
| 20260509032600 | 64 | 311 | 1.7 | 5.2 | 0.00 | 0.00 | 0.00 | 71 | 1029.8 |
| 20260509032101 | 64 | 298 | 2.6 | 6.1 | 0.00 | 0.00 | 0.00 | 70 | 1029.9 |
| 20260509031555 | 64 | 271 | 2.6 | 7.0 | 0.00 | 0.00 | 0.00 | 70 | 1029.9 |
| 20260509031055 | 65 | 319 | 2.6 | 7.0 | 0.00 | 0.00 | 0.00 | 69 | 1029.9 |
| 20260509030554 | 65 | 277 | 2.6 | 6.1 | 0.00 | 0.00 | 0.00 | 69 | 1029.7 |
| 20260509030058 | 66 | 304 | 2.6 | 5.2 | 0.00 | 0.00 | 0.00 | 68 | 1029.7 |
| 20260509025554 | 66 | 282 | 2.6 | 5.2 | 0.00 | 0.00 | 0.00 | 67 | 1029.7 |
| 20260509025055 | 67 | 271 | 1.7 | 5.2 | 0.00 | 0.00 | 0.00 | 66 | 1029.6 |
| 20260509024552 | 67 | 286 | 1.7 | 5.2 | 0.00 | 0.00 | 0.00 | 66 | 1029.7 |
| 20260509024052 | 67 | 355 | 2.6 | 5.2 | 0.00 | 0.00 | 0.00 | 64 | 1029.5 |
| 20260509023553 | 68 | 329 | 1.7 | 5.2 | 0.00 | 0.00 | 0.00 | 63 | 1029.5 |
| 20260509023050 | 68 | 275 | 1.7 | 5.2 | 0.00 | 0.00 | 0.00 | 62 | 1029.4 |
| 20260509022547 | 69 | 284 | 1.7 | 5.2 | 0.00 | 0.00 | 0.00 | 62 | 1029.3 |
| 20260509022049 | 69 | 261 | 1.7 | 5.2 | 0.00 | 0.00 | 0.00 | 61 | 1029.3 |
| 20260509021543 | 69 | 265 | 1.7 | 4.3 | 0.00 | 0.00 | 0.00 | 61 | 1029.3 |
| 20260509021041 | 69 | 284 | 1.7 | 4.3 | 0.00 | 0.00 | 0.00 | 61 | 1029.4 |
| 20260509020542 | 69 | 290 | 1.7 | 4.3 | 0.00 | 0.00 | 0.00 | 61 | 1029.3 |
| 20260509020041 | 69 | 350 | 1.7 | 5.2 | 0.00 | 0.00 | 0.00 | 61 | 1029.3 |
| 20260509015542 | 69 | 288 | 2.6 | 5.2 | 0.00 | 0.00 | 0.00 | 62 | 1029.4 |
| 20260509015042 | 69 | 278 | 2.6 | 6.1 | 0.00 | 0.00 | 0.00 | 61 | 1029.4 |
| 20260509014537 | 69 | 283 | 1.7 | 6.1 | 0.00 | 0.00 | 0.00 | 60 | 1029.3 |
| 20260509014034 | 69 | 265 | 2.6 | 5.2 | 0.00 | 0.00 | 0.00 | 60 | 1029.3 |
| 20260509013534 | 70 | 261 | 2.6 | 6.1 | 0.00 | 0.00 | 0.00 | 60 | 1029.4 |
| 20260509013035 | 70 | 284 | 2.6 | 6.1 | 0.00 | 0.00 | 0.00 | 59 | 1029.4 |
| 20260509012533 | 70 | 267 | 2.6 | 7.0 | 0.00 | 0.00 | 0.00 | 59 | 1029.5 |
| 20260509012034 | 71 | 0 | 1.7 | 7.0 | 0.00 | 0.00 | 0.00 | 58 | 1029.5 |
| 20260509011531 | 71 | 222 | 2.6 | 7.0 | 0.00 | 0.00 | 0.00 | 59 | 1029.7 |
| 20260509011030 | 71 | 246 | 2.6 | 7.0 | 0.00 | 0.00 | 0.00 | 59 | 1029.8 |
| 20260509010528 | 71 | 316 | 1.7 | 4.3 | 0.00 | 0.00 | 0.00 | 59 | 1029.9 |
| 20260509010028 | 71 | 328 | 0.9 | 6.1 | 0.00 | 0.00 | 0.00 | 58 | 1029.8 |
| 20260509005527 | 71 | 0 | 0.9 | 6.1 | 0.00 | 0.00 | 0.00 | 59 | 1029.6 |
| 20260509005028 | 70 | 288 | 0.9 | 5.2 | 0.00 | 0.00 | 0.00 | 60 | 1029.8 |
| 20260509004521 | 70 | 333 | 0.9 | 5.2 | 0.00 | 0.00 | 0.00 | 61 | 1029.8 |
| 20260509004021 | 70 | 265 | 1.7 | 7.0 | 0.00 | 0.00 | 0.00 | 59 | 1029.9 |
| 20260509003523 | 70 | 282 | 1.7 | 7.0 | 0.00 | 0.00 | 0.00 | 59 | 1029.9 |
| 20260509003020 | 70 | 258 | 1.7 | 5.2 | 0.00 | 0.00 | 0.00 | 58 | 1029.9 |
| 20260509002519 | 70 | 23 | 1.7 | 5.2 | 0.00 | 0.00 | 0.00 | 60 | 1030.1 |
| 20260509002020 | 71 | 250 | 2.6 | 8.7 | 0.00 | 0.00 | 0.00 | 57 | 1030.0 |
| 20260509001519 | 71 | 277 | 2.6 | 8.7 | 0.00 | 0.00 | 0.00 | 57 | 1030.0 |
| 20260509001021 | 71 | 343 | 2.6 | 6.1 | 0.00 | 0.00 | 0.00 | 57 | 1030.0 |
| 20260509000516 | 72 | 303 | 2.6 | 6.1 | 0.00 | 0.00 | 0.00 | 56 | 1029.9 |
| 20260509000016 | 71 | 0 | 2.6 | 7.8 | 0.00 | 0.00 | 0.00 | 57 | 1029.9 |
| 20260508235517 | 71 | 12 | 2.6 | 7.8 | 0.00 | 0.00 | 0.00 | 57 | 1030.0 |
| 20260508235015 | 71 | 275 | 1.7 | 7.8 | 0.00 | 0.00 | 0.00 | 57 | 1029.9 |
| 20260508234515 | 71 | 290 | 1.7 | 7.8 | 0.00 | 0.00 | 0.00 | 56 | 1030.0 |
| 20260508234017 | 71 | 227 | 1.7 | 5.2 | 0.00 | 0.00 | 0.00 | 57 | 1030.0 |
| 20260508233511 | 71 | 232 | 1.7 | 5.2 | 0.00 | 0.00 | 0.00 | 57 | 1030.0 |
| 20260508233011 | 71 | 270 | 2.6 | 5.2 | 0.00 | 0.00 | 0.00 | 56 | 1030.0 |
| 20260508232512 | 71 | 215 | 2.6 | 7.8 | 0.00 | 0.00 | 0.00 | 56 | 1030.0 |
| 20260508232012 | 71 | 229 | 1.7 | 7.8 | 0.00 | 0.00 | 0.00 | 57 | 1030.1 |
| 20260508231511 | 71 | 238 | 1.7 | 5.2 | 0.00 | 0.00 | 0.00 | 57 | 1030.1 |
| 20260508231013 | 71 | 179 | 1.7 | 7.8 | 0.00 | 0.00 | 0.00 | 57 | 1030.2 |
| 20260508230507 | 70 | 119 | 1.7 | 7.8 | 0.00 | 0.00 | 0.00 | 58 | 1030.1 |
| 20260508230008 | 69 | 218 | 1.7 | 7.0 | 0.00 | 0.00 | 0.00 | 58 | 1030.2 |
| 20260508225508 | 69 | 275 | 2.6 | 7.0 | 0.00 | 0.00 | 0.00 | 58 | 1030.1 |
| 20260508225008 | 70 | 232 | 1.7 | 4.3 | 0.00 | 0.00 | 0.00 | 58 | 1030.1 |
| 20260508224508 | 69 | 232 | 1.7 | 4.3 | 0.00 | 0.00 | 0.00 | 56 | 1030.1 |
| 20260508224009 | 69 | 0 | 2.6 | 6.1 | 0.00 | 0.00 | 0.00 | 57 | 1030.1 |
| 20260508223508 | 69 | 258 | 2.6 | 7.0 | 0.00 | 0.00 | 0.00 | 57 | 1030.1 |
| 20260508223007 | 69 | 176 | 2.6 | 7.0 | 0.00 | 0.00 | 0.00 | 57 | 1030.1 |
| 20260508222508 | 69 | 339 | 2.6 | 7.8 | 0.00 | 0.00 | 0.00 | 56 | 1030.1 |
| 20260508222005 | 69 | 229 | 2.6 | 7.8 | 0.00 | 0.00 | 0.00 | 56 | 1030.1 |
| 20260508221505 | 68 | 0 | 2.6 | 6.1 | 0.00 | 0.00 | 0.00 | 57 | 1030.3 |
| 20260508221001 | 68 | 222 | 1.7 | 6.1 | 0.00 | 0.00 | 0.00 | 56 | 1030.2 |
| 20260508220502 | 68 | 234 | 2.6 | 6.1 | 0.00 | 0.00 | 0.00 | 57 | 1030.3 |
| 20260508220001 | 68 | 208 | 1.7 | 6.1 | 0.00 | 0.00 | 0.00 | 58 | 1030.2 |
| 20260508215502 | 67 | 271 | 2.6 | 6.1 | 0.00 | 0.00 | 0.00 | 58 | 1030.2 |
| 20260508214955 | 67 | 275 | 3.5 | 7.0 | 0.00 | 0.00 | 0.00 | 58 | 1030.2 |
| 20260508214455 | 67 | 169 | 3.5 | 8.7 | 0.00 | 0.00 | 0.00 | 59 | 1030.3 |
| 20260508213955 | 67 | 294 | 3.5 | 9.6 | 0.00 | 0.00 | 0.00 | 58 | 1030.2 |
| 20260508213455 | 67 | 303 | 3.5 | 9.6 | 0.00 | 0.00 | 0.00 | 60 | 1030.3 |
| 20260508212955 | 67 | 127 | 3.5 | 8.7 | 0.00 | 0.00 | 0.00 | 58 | 1030.4 |
| 20260508212456 | 67 | 274 | 3.5 | 8.7 | 0.00 | 0.00 | 0.00 | 58 | 1030.3 |
| 20260508211952 | 67 | 306 | 2.6 | 7.0 | 0.00 | 0.00 | 0.00 | 61 | 1030.3 |
| 20260508211451 | 67 | 122 | 2.6 | 6.1 | 0.00 | 0.00 | 0.00 | 60 | 1030.4 |
| 20260508210952 | 67 | 195 | 1.7 | 6.1 | 0.00 | 0.00 | 0.00 | 60 | 1030.4 |
| 20260508210451 | 67 | 282 | 2.6 | 7.0 | 0.00 | 0.00 | 0.00 | 60 | 1030.4 |
| 20260508205949 | 67 | 240 | 2.6 | 7.8 | 0.00 | 0.00 | 0.00 | 61 | 1030.3 |
| 20260508205450 | 67 | 273 | 2.6 | 7.8 | 0.00 | 0.00 | 0.00 | 61 | 1030.4 |
| 20260508204944 | 66 | 209 | 1.7 | 6.1 | 0.00 | 0.00 | 0.00 | 60 | 1030.3 |
| 20260508204443 | 66 | 129 | 1.7 | 7.0 | 0.00 | 0.00 | 0.00 | 60 | 1030.3 |
| 20260508203943 | 65 | 203 | 1.7 | 7.0 | 0.00 | 0.00 | 0.00 | 65 | 1030.3 |
| 20260508203443 | 65 | 128 | 1.7 | 4.3 | 0.00 | 0.00 | 0.00 | 63 | 1030.3 |
| 20260508202943 | 65 | 133 | 1.7 | 5.2 | 0.00 | 0.00 | 0.00 | 62 | 1030.4 |
| 20260508202444 | 65 | 246 | 2.6 | 6.1 | 0.00 | 0.00 | 0.00 | 61 | 1030.4 |
| 20260508201939 | 65 | 156 | 1.7 | 6.1 | 0.00 | 0.00 | 0.00 | 63 | 1030.4 |
| 20260508201440 | 64 | 210 | 1.7 | 4.3 | 0.00 | 0.00 | 0.00 | 65 | 1030.4 |
| 20260508200937 | 64 | 38 | 2.6 | 6.1 | 0.00 | 0.00 | 0.00 | 63 | 1030.4 |
| 20260508200437 | 64 | 271 | 2.6 | 5.2 | 0.00 | 0.00 | 0.00 | 63 | 1030.6 |
| 20260508195938 | 63 | 136 | 2.6 | 7.8 | 0.00 | 0.00 | 0.00 | 64 | 1030.6 |
| 20260508195436 | 63 | 355 | 1.7 | 7.0 | 0.00 | 0.00 | 0.00 | 65 | 1030.5 |
| 20260508194932 | 63 | 69 | 1.7 | 6.1 | 0.00 | 0.00 | 0.00 | 63 | 1030.6 |
| 20260508194431 | 64 | 235 | 2.6 | 6.1 | 0.00 | 0.00 | 0.00 | 63 | 1030.6 |
| 20260508193931 | 64 | 203 | 2.6 | 6.1 | 0.00 | 0.00 | 0.00 | 64 | 1030.7 |
| 20260508193431 | 65 | 212 | 1.7 | 6.1 | 0.00 | 0.00 | 0.00 | 64 | 1030.7 |
| 20260508192931 | 64 | 59 | 1.7 | 7.0 | 0.00 | 0.00 | 0.00 | 66 | 1030.7 |
| 20260508192432 | 63 | 92 | 1.7 | 7.0 | 0.00 | 0.00 | 0.00 | 65 | 1030.7 |
| 20260508191926 | 63 | 178 | 1.7 | 6.1 | 0.00 | 0.00 | 0.00 | 68 | 1030.8 |
| 20260508191425 | 62 | 160 | 2.6 | 7.0 | 0.00 | 0.00 | 0.00 | 66 | 1030.7 |
| 20260508190925 | 62 | 276 | 2.6 | 7.0 | 0.00 | 0.00 | 0.00 | 66 | 1030.8 |
| 20260508190425 | 62 | 292 | 2.6 | 5.2 | 0.00 | 0.00 | 0.00 | 67 | 1030.7 |
| 20260508185925 | 62 | 168 | 1.7 | 7.0 | 0.00 | 0.00 | 0.00 | 65 | 1030.8 |
| 20260508185431 | 62 | 172 | 2.6 | 7.0 | 0.00 | 0.00 | 0.00 | 66 | 1030.8 |
| 20260508184921 | 62 | 102 | 2.6 | 7.0 | 0.00 | 0.00 | 0.00 | 66 | 1030.9 |
| 20260508184421 | 62 | 257 | 2.6 | 7.0 | 0.00 | 0.00 | 0.00 | 68 | 1030.9 |
| 20260508183919 | 62 | 164 | 1.7 | 5.2 | 0.00 | 0.00 | 0.00 | 67 | 1030.8 |
| 20260508183419 | 62 | 154 | 1.7 | 4.3 | 0.00 | 0.00 | 0.00 | 67 | 1030.9 |
| 20260508182919 | 62 | 103 | 2.6 | 8.7 | 0.00 | 0.00 | 0.00 | 68 | 1030.8 |
| 20260508182420 | 62 | 229 | 3.5 | 8.7 | 0.00 | 0.00 | 0.00 | 70 | 1030.8 |
| 20260508181912 | 62 | 207 | 2.6 | 7.0 | 0.00 | 0.00 | 0.00 | 68 | 1030.8 |
| 20260508181412 | 62 | 136 | 2.6 | 7.0 | 0.00 | 0.00 | 0.00 | 68 | 1030.7 |
| 20260508180913 | 61 | 198 | 2.6 | 7.0 | 0.00 | 0.00 | 0.00 | 70 | 1030.7 |
| 20260508180412 | 60 | 191 | 2.6 | 6.1 | 0.00 | 0.00 | 0.00 | 70 | 1030.7 |
| 20260508175913 | 59 | 121 | 2.6 | 12.2 | 0.00 | 0.00 | 0.00 | 72 | 1030.8 |
| 20260508175414 | 59 | 199 | 3.5 | 12.2 | 0.00 | 0.00 | 0.00 | 73 | 1030.7 |
| 20260508174909 | 58 | 193 | 2.6 | 7.8 | 0.00 | 0.00 | 0.00 | 73 | 1030.6 |
| 20260508174409 | 58 | 179 | 1.7 | 6.1 | 0.00 | 0.00 | 0.00 | 73 | 1030.6 |
| 20260508173907 | 58 | 246 | 1.7 | 6.1 | 0.00 | 0.00 | 0.00 | 74 | 1030.6 |
| 20260508173407 | 58 | 171 | 2.6 | 6.1 | 0.00 | 0.00 | 0.00 | 74 | 1030.5 |
| 20260508172907 | 57 | 188 | 2.6 | 8.7 | 0.00 | 0.00 | 0.00 | 74 | 1030.5 |
| 20260508172408 | 57 | 155 | 2.6 | 8.7 | 0.00 | 0.00 | 0.00 | 73 | 1030.5 |
| 20260508171905 | 57 | 265 | 1.7 | 6.1 | 0.00 | 0.00 | 0.00 | 74 | 1030.5 |
| 20260508171405 | 57 | 194 | 1.7 | 5.2 | 0.00 | 0.00 | 0.00 | 76 | 1030.5 |
| 20260508170906 | 57 | 186 | 2.6 | 6.1 | 0.00 | 0.00 | 0.00 | 75 | 1030.4 |
| 20260508170402 | 57 | 194 | 2.6 | 6.1 | 0.00 | 0.00 | 0.00 | 75 | 1030.5 |
| 20260508165901 | 57 | 238 | 2.6 | 7.0 | 0.00 | 0.00 | 0.00 | 77 | 1030.5 |
| 20260508165401 | 56 | 178 | 2.6 | 7.0 | 0.00 | 0.00 | 0.00 | 77 | 1030.4 |
| 20260508164856 | 56 | 223 | 2.6 | 7.0 | 0.00 | 0.00 | 0.00 | 77 | 1030.3 |
| 20260508164355 | 56 | 171 | 1.7 | 7.0 | 0.00 | 0.00 | 0.00 | 79 | 1030.3 |
| 20260508163854 | 55 | 171 | 1.7 | 6.1 | 0.00 | 0.00 | 0.00 | 79 | 1030.2 |
| 20260508163354 | 55 | 259 | 1.7 | 6.1 | 0.00 | 0.00 | 0.00 | 79 | 1030.2 |
| 20260508162855 | 55 | 167 | 1.7 | 6.1 | 0.00 | 0.00 | 0.00 | 79 | 1030.2 |
| 20260508162355 | 55 | 173 | 1.7 | 4.3 | 0.00 | 0.00 | 0.00 | 80 | 1030.0 |
| 20260508161850 | 55 | 148 | 1.7 | 4.3 | 0.00 | 0.00 | 0.00 | 81 | 1029.9 |
| 20260508161346 | 54 | 143 | 2.6 | 6.1 | 0.00 | 0.00 | 0.00 | 81 | 1030.0 |
| 20260508160846 | 54 | 145 | 2.6 | 6.1 | 0.00 | 0.00 | 0.00 | 81 | 1029.8 |
| 20260508160348 | 54 | 147 | 2.6 | 7.8 | 0.00 | 0.00 | 0.00 | 82 | 1029.7 |
| 20260508155847 | 53 | 149 | 2.6 | 7.8 | 0.00 | 0.00 | 0.00 | 82 | 1029.5 |
| 20260508155347 | 53 | 175 | 2.6 | 6.1 | 0.00 | 0.00 | 0.00 | 83 | 1030.0 |
| 20260508154842 | 53 | 198 | 2.6 | 6.1 | 0.00 | 0.00 | 0.00 | 83 | 1030.1 |
| 20260508154342 | 53 | 224 | 2.6 | 10.4 | 0.00 | 0.00 | 0.00 | 83 | 1030.0 |
| 20260508153849 | 53 | 185 | 2.6 | 10.4 | 0.00 | 0.00 | 0.00 | 84 | 1030.1 |
| 20260508153342 | 53 | 115 | 2.6 | 6.1 | 0.00 | 0.00 | 0.00 | 84 | 1029.7 |
| 20260508152840 | 53 | 138 | 1.7 | 6.1 | 0.00 | 0.00 | 0.00 | 85 | 1029.9 |
| 20260508152341 | 52 | 201 | 2.6 | 8.7 | 0.00 | 0.00 | 0.00 | 86 | 1029.9 |
| 20260508151836 | 52 | 111 | 2.6 | 8.7 | 0.00 | 0.00 | 0.00 | 86 | 1029.8 |
| 20260508151337 | 51 | 139 | 1.7 | 6.1 | 0.00 | 0.00 | 0.00 | 85 | 1029.7 |
| 20260508150838 | 51 | 149 | 1.7 | 6.1 | 0.00 | 0.00 | 0.00 | 85 | 1029.5 |
| 20260508150337 | 51 | 134 | 1.7 | 5.2 | 0.00 | 0.00 | 0.00 | 85 | 1029.8 |
| 20260508145835 | 51 | 190 | 0.9 | 5.2 | 0.00 | 0.00 | 0.00 | 86 | 1029.9 |
| 20260508145336 | 51 | 157 | 0.9 | 4.3 | 0.00 | 0.00 | 0.00 | 86 | 1029.8 |
| 20260508144829 | 51 | 109 | 1.7 | 4.3 | 0.00 | 0.00 | 0.00 | 86 | 1029.9 |
| 20260508144328 | 51 | 126 | 1.7 | 7.0 | 0.00 | 0.00 | 0.00 | 86 | 1029.8 |
| 20260508143825 | 51 | 105 | 1.7 | 7.0 | 0.00 | 0.00 | 0.00 | 86 | 1029.7 |
| 20260508143331 | 51 | 190 | 0.9 | 5.2 | 0.00 | 0.00 | 0.00 | 86 | 1029.9 |
| 20260508142826 | 50 | 106 | 1.7 | 5.2 | 0.00 | 0.00 | 0.00 | 86 | 1029.8 |
| 20260508142325 | 50 | 134 | 1.7 | 4.3 | 0.00 | 0.00 | 0.00 | 86 | 1029.8 |
| 20260508141825 | 50 | 184 | 0.9 | 4.3 | 0.00 | 0.00 | 0.00 | 87 | 1029.9 |
| 20260508141325 | 50 | 147 | 0.9 | 3.5 | 0.00 | 0.00 | 0.00 | 87 | 1029.7 |
| 20260508140824 | 49 | 159 | 0.9 | 3.5 | 0.00 | 0.00 | 0.00 | 88 | 1029.8 |
| 20260508140325 | 49 | 195 | 0.9 | 2.6 | 0.00 | 0.00 | 0.00 | 88 | 1029.8 |
| 20260508135824 | 49 | 158 | 0.0 | 2.6 | 0.00 | 0.00 | 0.00 | 89 | 1029.9 |
| 20260508135323 | 48 | 169 | 0.0 | 2.6 | 0.00 | 0.00 | 0.00 | 89 | 1029.8 |
| 20260508134823 | 48 | 173 | 0.0 | 1.7 | 0.00 | 0.00 | 0.00 | 89 | 1029.7 |
| 20260508134323 | 48 | 172 | 0.0 | 1.7 | 0.00 | 0.00 | 0.00 | 89 | 1029.6 |
| 20260508133818 | 47 | 173 | 0.0 | 0.9 | 0.00 | 0.00 | 0.00 | 89 | 1029.5 |
| 20260508133319 | 47 | 173 | 0.0 | 1.7 | 0.00 | 0.00 | 0.00 | 89 | 1029.4 |
| 20260508132820 | 47 | 173 | 0.9 | 2.6 | 0.00 | 0.00 | 0.00 | 89 | 1029.3 |
| 20260508132318 | 47 | 173 | 0.9 | 2.6 | 0.00 | 0.00 | 0.00 | 89 | 1029.3 |
| 20260508131819 | 47 | 175 | 0.9 | 2.6 | 0.00 | 0.00 | 0.00 | 89 | 1029.2 |
| 20260508131320 | 47 | 175 | 0.0 | 2.6 | 0.00 | 0.00 | 0.00 | 89 | 1029.1 |